Showing default

DIADEME 2, 2680

Orbit data source: Space-Track

DIADEME 2, 2680 is a payload satellite owned by CNES (FR) in LEO that was launched on Wed, 15 Feb 1967 UTC via a DIAMANT A launch vehicle from the Hamma Guira Space Track Range (HGSTR). Payload-class satellites include a variety of spacecraft equipped with specific instruments for various scientific and technological missions. These include communications satellites like Starlink; space stations such as the ISS; scientific satellites like the Hubble; Earth observation satellites from companies like Planet Labs, Umbra, and HawkEye 360; GPS; miniature CubeSats for education and research; and military/defense satellites.

Loading next visibility...
Identifier
2680, 1967-014A
Orbit
LEO
Country
Flag of FRFR
Related business
Manufacturer
CNES
Mission
Spacecraft
Bus & Motor
D-1, Unknown motor
Mass
23 kg wet, 23 kg dry
Launch date (UTC)
1967-02-15 (59 years ago)
Launch vehicle
DIAMANT A
Launch site
Hamma Guira Space Track Range (HGSTR)
Object type
Payload
Rocket body
Debris
Shape & HBR
Unknown
Radar Cross Section
Medium (>0.1 m² and <1 m²)

Expand to show TLE details & history
Last TLE update: 14 hours ago

TLE from 14 hours ago
0 DIADEME 2
1 02680U 67014A   26035.21259619  .00002258  00000-0  93881-3 0  9994
2 02680  39.4401 330.3176 0699567   4.1352 356.4785 13.41684736858102
Epoch: 2026-02-04T05:06Z
TLE epoch observation values (Epoch: 2026-02-04T05:06:08.310Z)
Latitude
Longitude
119.40056°
Altitude
580.302 km
Speed
7.831 km/s
True Right ascension
22h 01m 16s
True Declination
0° 00' 00"
Sunlit
Object was in daylight at epoch
Visualization orbit readout
Latitude
Unknown
Longitude
Unknown
Altitude
Unknown
Speed
Unknown
Apparent Right ascension
Unknown
Apparent Declination
Unknown
Sunlit
N/A
Visualization observer readout
Local Sidereal Time
20:37:52
Azimuth
Unknown
Elevation
Unknown
Doppler factor
Unknown
Orbital elements
Apogee altitude
1,628.876 km
Perigee altitude
581.835 km
Semi-major axis
7,483.493 km
Eccentricity
0.06996
Inclination
39.4401°
RAAN
330.3176°
Arg. of periapsis
4.1352°
True anomaly
355.93923°
Mean anomaly
356.4785°
Eccentric anomaly
356.21382°
Mean motion
3.35264 °/min
Orbital period
107.38 mins
BSTAR
0.00093881
Loading maneuver chart data...
Computing Atmospheric mass density...
Loading historical data...
Loading historical data...
Loading historical data...
Loading historical data...
Loading historical data...
Loading historical data...
Loading historical data...

Documentation

Showing up to 5 results
|